Airfield :
LOGIN :

Register | Disclaimer

   EN    FR    IT 

 










Legend :    VFR   Marginal VFR   IFR   Intensive IFR   Very Intensive IFR
Visi :
Ceiling :
>= 8 km
>= 3000ft
5 to 8 km
1000 to 3000 ft
1500m to 5 km
500 to 1000 ft
800 to 1500m
200 to 500 ft
< 800m
< 200 ft
Symbols :   Thunderstorms  Fog  Heavy snow  Heavy precipitations  Wind > 20 kt
SIGMETs :     Misc.  Thunderstorms  Icing  Turbulence  Mountain Waves  Volcanic Ashes







- Airport Elevation : 13 ft
- IATA code : LYX
- Download approach charts


EGMD - Lydd

CURRENT METAR :
  • 111750Z 14009KT 9999 BKN026 08/05 Q1024

EXPIRED METARs :
  • 111720Z 14007KT 9999 BKN026 09/05 Q1024
  • 111650Z 13009KT 9999 BKN030 08/05 Q1024
  • 111620Z 14007KT 9999 BKN028 08/05 Q1024
  • 111550Z 14008KT 9999 BKN023 08/05 Q1024
  • 111520Z 14005KT 9999 BKN022 09/05 Q1024

TAF TAF EGMD
Valid from the 11 at 18:00 until the 12 at 03:00 UTC


111655Z 1118/1203 15006KT 9999 FEW035
TEMPO 1118/1203 6000
PROB30
TEMPO 1200/1203 3000 BR
ATIS : +44 1797 322 422
No reported NOTAMs for that airfield.



MET'MAP, your aeronautical weather chart ! - Copyright ORBIFLY December 2007 - Disclaimer

ORBIFLY MET'MAP TEAM :

Programming & Development : Alexandra Zaïnal
Concept & Development : Baudouin d'Aumeries
Co-Development & Prog : Marc-Olivier Méhu
Technical & hardware support : Manuel Goepfert

Contact : metmap@orbifly.com




SOURCES & CREDITS :

   NOAA